Regional Weather Roundup
Issued by NWS

Home | Current Version | Previous Version | Text Only | Print | Product List | Glossary Off
Versions: 1 2 3 4 5 6 7 8 9 10 11 12 13 14 15 16 17 18 19 20 21 22 23 24 25 26 27 28 29 30 31 32 33 34 35 36 37 38 39 40 41 42 43 44 45 46 47 48 49 50

163
ASUS43 KMKX 240000
RWRWI

WISCONSIN REGIONAL WEATHER ROUNDUP
NATIONAL WEATHER SERVICE MILWAUKEE/SULLIVAN WI
700 PM CDT MON OCT 23 2017

NOTE: "FAIR" INDICATES FEW OR NO CLOUDS BELOW 12,000 FEET WITH NO
SIGNIFICANT WEATHER AND/OR OBSTRUCTIONS TO VISIBILITY.

WIZ001-002-006>008-014>016-023>028-240100-
NORTHWEST WISCONSIN

CITY           SKY/WX    TMP DP  RH WIND       PRES   REMARKS
SUPERIOR ARPT  CLOUDY    49  44  82 NW9G22    29.79R
ASHLAND        CLOUDY    53  42  66 W16G22    29.71R
6HR MIN TEMP:  53; 6HR MAX TEMP:  64;

HAYWARD        CLOUDY    51  40  65 VRB5      29.74R
6HR MIN TEMP:  51; 6HR MAX TEMP:  61;

SIREN          CLOUDY    49  39  70 NW17G25   29.80R
CUMBERLAND     PTCLDY    46  37  71 NW14G26   29.75R
RICE LAKE      PTCLDY    50  39  67 W15G23    29.76R
CHETEK         MOCLDY    51  42  71 NW8G22    29.73R
LADYSMITH      LGT RAIN  50  48  91 N8        29.71F
EAU CLAIRE     NOT AVBL
MENOMONIE      CLEAR     50  41  70 W15       29.75R
NEW RICHMOND   NOT AVBL
OSCEOLA        CLOUDY    49  40  71 NW12G20   29.84S
$$

WIZ003>005-009-010-017-018-240100-
NORTH CENTRAL WISCONSIN

CITY           SKY/WX    TMP DP  RH WIND       PRES   REMARKS
MANITOWISH WTR LGT RAIN  51  46  83 CALM      29.66F
ARBOR VITAE    CLOUDY    52  47  84 N3        29.66F
WOODRUFF       CLOUDY    52  47  84 N3        29.66F
RHINELANDER    LGT RAIN  48  47  96 W5        29.66F
6HR MIN TEMP:  48; 6HR MAX TEMP:  56; 6HR PCP:  0.02;

EAGLE RIVER    DRIZZLE   47  42  82 W3        29.65F
LAND O LAKES   CLOUDY    50  42  72 CALM      29.67F
PHILLIPS       CLOUDY    51  46  80 CALM      29.66F
TOMAHAWK       CLOUDY    46  42  85 CALM      29.67S
MEDFORD        LGT RAIN  49  43  79 W3        29.66F
MERRILL        CLOUDY    50  43  75 CALM      29.67S
$$

WIZ029-030-035-036-043>047-240100-
CENTRAL WISCONSIN

CITY           SKY/WX    TMP DP  RH WIND       PRES   REMARKS
WAUSAU         LGT RAIN  50  44  80 NW5       29.63F
6HR MIN TEMP:  50; 6HR MAX TEMP:  56; 6HR PCP: TRACE;

MOSINEE        CLOUDY    48  45  87 W8        29.65F
MARSHFIELD     CLOUDY    50  43  77 W6        29.66F
6HR MIN TEMP:  50; 6HR MAX TEMP:  57; 6HR PCP: TRACE;

STEVENS POINT  CLOUDY    51  42  70 W6        29.66S
WAUPACA        CLOUDY    51  48  91 CALM      29.65F
WAUTOMA        CLOUDY   N/A N/A N/A W6        29.65F
WISC RAPIDS    LGT RAIN  51  44  77 NW6       29.66F
6HR MIN TEMP:  51; 6HR MAX TEMP:  58; 6HR PCP: TRACE;

CAMP DOUGLAS   NOT AVBL
$$

WIZ011>013-019>022-031-037>040-048>050-240100-
NORTHEAST WISCONSIN

CITY           SKY/WX    TMP DP  RH WIND       PRES   REMARKS
ANTIGO         CLOUDY    46  43  89 CALM      29.66S
SHAWANO        CLOUDY    51  46  83 CALM      29.65F
OCONTO         CLOUDY    47  46  96 CALM      29.64F
STURGEON BAY   CLOUDY    49  47  93 N5        29.64F
6HR MIN TEMP:  49; 6HR MAX TEMP:  53;

GREEN BAY      CLOUDY    50  48  93 NE5       29.64F
6HR MIN TEMP:  50; 6HR MAX TEMP:  54;

MANITOWOC      CLOUDY    50  45  83 CALM      29.64
6HR MIN TEMP:  49; 6HR MAX TEMP:  53;

APPLETON       CLOUDY    50  39  66 CALM      29.63F
CLINTONVILLE   NOT AVBL
OSHKOSH        CLOUDY    50  45  83 CALM      29.63F
6HR MIN TEMP:  49; 6HR MAX TEMP:  54;

$$

WIZ032>034-041-042-053>061-240100-
SOUTHWEST WISCONSIN

CITY           SKY/WX    TMP DP  RH WIND       PRES   REMARKS
LA CROSSE      CLOUDY    54  41  61 NW15      29.72R
6HR MIN TEMP:  54; 6HR MAX TEMP:  59; 6HR PCP:  0.02;

SPARTA         MOCLDY    49  47  92 CALM      29.70F
VIROQUA        CLOUDY    49  47  93 W7        29.71S
BOSCOBEL       CLOUDY    51  47  86 SW3       29.72S
6HR MIN TEMP:  51; 6HR MAX TEMP:  61; 6HR PCP:  0.01;

PRAIRIE DU CHI MOCLDY    54  37  53 W18G25    29.73S
PLATTEVILLE    CLOUDY    49  49  99 W7        29.72F
$$

WIZ056-057-062-063-064-067-068-240100-
SOUTH CENTRAL WISCONSIN

CITY           SKY/WX    TMP DP  RH WIND       PRES   REMARKS
REEDSBURG      DRIZZLE   52  42  70 W8        29.68F
BARABOO/DELLS  LGT RAIN  52  42  69 W9        29.67S
LONE ROCK      CLOUDY    50  48  93 W6        29.70F
6HR MIN TEMP:  50; 6HR MAX TEMP:  60; 6HR PCP:  0.01;

MINERAL POINT  CLOUDY    50  50 100 W6        29.70F
MADISON        CLOUDY    55  42  61 NW7       29.66S
6HR MIN TEMP:  54; 6HR MAX TEMP:  57;

MIDDLETON      CLOUDY    56  45  64 NW10      29.67S
WATERTOWN      CLOUDY    49  49  99 CALM      29.65S
MONROE         LGT RAIN  54  41  62 W16G23    29.68R
JANESVILLE     CLOUDY    54  50  87 CALM      29.65F
$$

WIZ051-052-058>065-066-070>072-240100-
SOUTHEAST WISCONSIN

CITY           SKY/WX    TMP DP  RH WIND       PRES   REMARKS
MILWAUKEE      CLOUDY    52  46  80 N3        29.64F
6HR MIN TEMP:  52; 6HR MAX TEMP:  55;

WAUKESHA       MOCLDY    48  43  81 W6        29.65F
MILWAUKEE/TIMM CLEAR     48  41  76 CALM      29.65F
RACINE         CLOUDY    50  47  89 CALM      29.65F
6HR MIN TEMP:  50; 6HR MAX TEMP:  53;

BURLINGTON     CLOUDY    49  45  84 CALM      29.65F
KENOSHA        CLOUDY    50  45  83 W3        29.65F
6HR MIN TEMP:  50; 6HR MAX TEMP:  53;

FOND DU LAC    CLOUDY    49  45  86 CALM      29.64F
6HR MIN TEMP:  49; 6HR MAX TEMP:  54;

SHEBOYGAN      CLOUDY    49  47  93 CALM      29.64F
6HR MIN TEMP:  49; 6HR MAX TEMP:  53; 6HR PCP: TRACE;

WEST BEND      CLOUDY    48  43  81 CALM      29.64F
JUNEAU         CLOUDY    48  45  88 CALM      29.65F
$$

LSZ147-162-240100-
LAKE SUPERIOR

STATION/POSITION TIME  TEMP    WIND        PRES    WAVE
                       AIR SEA DIR/SP/G            HT/PER
                 (UTC) (F)     (DEG/KT/KT) (MB)    (FT/S)
W MID LAKE BUOY  2250   53 51              1005.1R   1/ 4
DEVILS ISLAND    2300   55     330/ 14/ 16 1005.9R
PORT WING        2340          290/ 16/ 22 1007.5R
SAXON HARBOR     2340   57     300/ 13/ 19 1004.7S
$$

LMZ867-665-643>646-240100-
LAKE MICHIGAN

STATION/POSITION TIME  TEMP    WIND        PRES    WAVE
                       AIR SEA DIR/SP/G            HT/PER
                 (UTC) (F)     (DEG/KT/KT) (MB)    (FT/S)
S GREEN BAY BUOY 2330   53 58  340/  6/  8 1004.2F
N MID LAKE BUOY  2250   54 57   30/  8/ 12 1005.0F
NORTHPORT PIER   2340   53      10/  5/  7 1003.7F
KEWAUNEE LAKESHO 2330   49     310/  3/  4 1003.3F
SHEBOYGAN LAKESH 2300   50     340/  5/  6 1004.2F
PORT WASHINGTON  2330   52      CALM  /  1 1004.7F
MILWAUKEE LAKESH 2330   53     320/  4/  5   N/A
S MID LAKE BUOY  2250   55 60  340/ 19/ 23 1003.0F   3/ 5
KENOSHA   LAKESH 2300   53     300/  4/  7 1004.4
$$

TC  - TEMPERATURE IN CELSIUS
VSB - VISIBILITY IN STATUTE MILES
WCI - WIND CHILL INDEX
HX  - HEAT INDEX





USA.gov is the U.S. government's official web portal to all federal, state and local government web resources and services.